• Em Portugal
  • Lista de países
  • Para 7 dias
  • Temperatura da água
  • Mapas de satélite
  • Mapa do tempo
  • Widgets de tempo
  • user-avatar
    Iniciar Sessão

    Previsão horária em Pischiki

    Hoje, 20 Julho, Sexta-feira

    Tempo Temperatura Precipitação Vento Pressão Humidade
    00:00 +18°C° 0 mm 3 m/s 733 mmHg 96%
    01:00 +17°C° 0 mm 3 m/s 733 mmHg 97%
    02:00 +17°C° 0 mm 2 m/s 733 mmHg 97%
    03:00 +17°C° 0 mm 2 m/s 733 mmHg 98%
    04:00 +17°C° 0 mm 2 m/s 733 mmHg 98%
    05:00 +17°C° 0 mm 2 m/s 733 mmHg 98%
    06:00 +17°C° 0,1 mm 3 m/s 733 mmHg 97%
    07:00 +18°C° 0,1 mm 3 m/s 733 mmHg 95%
    08:00 +19°C° 0,1 mm 3 m/s 734 mmHg 94%
    09:00 +20°C° 0,2 mm 3 m/s 734 mmHg 93%
    10:00 +20°C° 0,2 mm 3 m/s 734 mmHg 91%
    11:00 +21°C° 0,2 mm 4 m/s 734 mmHg 90%
    12:00 +22°C° 0,4 mm 3 m/s 733 mmHg 86%
    13:00 +24°C° 0,4 mm 3 m/s 733 mmHg 83%
    14:00 +25°C° 0,4 mm 3 m/s 733 mmHg 79%
    15:00 +25°C° 0,7 mm 3 m/s 733 mmHg 81%
    16:00 +25°C° 0,7 mm 2 m/s 733 mmHg 82%
    17:00 +25°C° 0,7 mm 2 m/s 733 mmHg 83%
    18:00 +23°C° 1,2 mm 2 m/s 733 mmHg 86%
    19:00 +21°C° 1,2 mm 2 m/s 733 mmHg 89%
    20:00 +20°C° 1,2 mm 2 m/s 733 mmHg 92%
    21:00 +20°C° 0 mm 2 m/s 733 mmHg 93%
    22:00 +19°C° 0 mm 2 m/s 733 mmHg 94%
    23:00 +20°C° 0 mm 1 m/s 733 mmHg 95%

    Amanhã, 21 Julho, Sábado

    Tempo Temperatura Precipitação Vento Pressão Humidade
    00:00 +19°C° 0 mm 1 m/s 733 mmHg 95%
    01:00 +19°C° 0 mm 1 m/s 733 mmHg 96%
    02:00 +19°C° 0 mm 1 m/s 733 mmHg 96%
    03:00 +19°C° 0 mm 1 m/s 733 mmHg 96%
    04:00 +19°C° 0 mm 1 m/s 734 mmHg 97%
    05:00 +19°C° 0 mm 1 m/s 734 mmHg 97%
    06:00 +20°C° 0 mm 1 m/s 734 mmHg 94%
    07:00 +21°C° 0 mm 1 m/s 734 mmHg 91%
    08:00 +23°C° 0 mm 1 m/s 734 mmHg 88%
    09:00 +23°C° 0,6 mm 2 m/s 734 mmHg 85%
    10:00 +24°C° 0,6 mm 2 m/s 734 mmHg 82%
    11:00 +25°C° 0,6 mm 2 m/s 734 mmHg 79%
    12:00 +25°C° 1,2 mm 2 m/s 734 mmHg 79%
    13:00 +26°C° 1,2 mm 2 m/s 734 mmHg 79%
    14:00 +26°C° 1,2 mm 2 m/s 734 mmHg 79%
    15:00 +26°C° 1,8 mm 2 m/s 734 mmHg 81%
    16:00 +25°C° 1,8 mm 2 m/s 734 mmHg 82%
    17:00 +25°C° 1,8 mm 2 m/s 734 mmHg 83%
    18:00 +24°C° 0,9 mm 2 m/s 734 mmHg 86%
    19:00 +23°C° 0,9 mm 2 m/s 734 mmHg 89%
    20:00 +21°C° 0,9 mm 2 m/s 734 mmHg 92%
    21:00 +20°C° 0,2 mm 2 m/s 734 mmHg 92%
    22:00 +20°C° 0,2 mm 2 m/s 734 mmHg 93%
    23:00 +19°C° 0,2 mm 2 m/s 734 mmHg 94%

    Depois de amanhã, 22 Julho, Domingo

    Tempo Temperatura Precipitação Vento Pressão Humidade
    00:00 +19°C° 0 mm 2 m/s 734 mmHg 94%
    01:00 +20°C° 0 mm 1 m/s 734 mmHg 95%
    02:00 +19°C° 0 mm 1 m/s 733 mmHg 95%
    03:00 +19°C° 0,3 mm 1 m/s 733 mmHg 95%
    04:00 +19°C° 0,3 mm 1 m/s 733 mmHg 96%
    05:00 +19°C° 0,3 mm 1 m/s 733 mmHg 96%
    06:00 +20°C° 0,6 mm 1 m/s 733 mmHg 93%
    07:00 +22°C° 0,6 mm 1 m/s 733 mmHg 91%
    08:00 +23°C° 0,6 mm 1 m/s 733 mmHg 88%
    09:00 +24°C° 1,9 mm 2 m/s 733 mmHg 85%
    10:00 +24°C° 1,9 mm 2 m/s 733 mmHg 82%
    11:00 +25°C° 1,9 mm 3 m/s 733 mmHg 79%
    12:00 +25°C° 1,6 mm 3 m/s 733 mmHg 79%
    13:00 +25°C° 1,6 mm 3 m/s 733 mmHg 80%
    14:00 +26°C° 1,6 mm 4 m/s 733 mmHg 80%
    15:00 +25°C° 0,9 mm 4 m/s 733 mmHg 83%
    16:00 +23°C° 0,9 mm 4 m/s 733 mmHg 85%
    17:00 +23°C° 0,9 mm 4 m/s 733 mmHg 88%
    18:00 +22°C° 0,1 mm 4 m/s 733 mmHg 90%
    19:00 +21°C° 0,1 mm 4 m/s 733 mmHg 92%
    20:00 +20°C° 0,1 mm 4 m/s 733 mmHg 94%
    21:00 +19°C° 0,1 mm 3 m/s 733 mmHg 95%
    22:00 +19°C° 0,1 mm 3 m/s 733 mmHg 95%
    23:00 +19°C° 0,1 mm 3 m/s 733 mmHg 96%

    23 Julho, Segunda-feira

    Tempo Temperatura Precipitação Vento Pressão Humidade
    00:00 +18°C° 0 mm 3 m/s 733 mmHg 96%
    01:00 +18°C° 0 mm 3 m/s 733 mmHg 96%
    02:00 +18°C° 0 mm 3 m/s 733 mmHg 96%
    03:00 +18°C° 0 mm 3 m/s 733 mmHg 97%
    04:00 +18°C° 0 mm 3 m/s 733 mmHg 97%
    05:00 +18°C° 0 mm 2 m/s 733 mmHg 97%
    06:00 +19°C° 0 mm 2 m/s 733 mmHg 96%
    07:00 +19°C° 0 mm 2 m/s 733 mmHg 95%
    08:00 +20°C° 0 mm 2 m/s 733 mmHg 94%
    09:00 +20°C° 0,1 mm 2 m/s 734 mmHg 92%
    10:00 +21°C° 0,1 mm 2 m/s 734 mmHg 90%
    11:00 +23°C° 0,1 mm 2 m/s 734 mmHg 88%
    12:00 +23°C° 0,3 mm 2 m/s 734 mmHg 88%
    13:00 +22°C° 0,3 mm 3 m/s 734 mmHg 87%
    14:00 +22°C° 0,3 mm 3 m/s 734 mmHg 86%
    15:00 +22°C° 0,5 mm 3 m/s 734 mmHg 87%
    16:00 +22°C° 0,5 mm 4 m/s 734 mmHg 88%
    17:00 +22°C° 0,5 mm 4 m/s 734 mmHg 89%
    18:00 +21°C° 0,5 mm 4 m/s 734 mmHg 90%
    19:00 +20°C° 0,5 mm 4 m/s 734 mmHg 92%
    20:00 +19°C° 0,5 mm 4 m/s 735 mmHg 93%
    21:00 +19°C° 0 mm 4 m/s 735 mmHg 94%
    22:00 +19°C° 0 mm 4 m/s 735 mmHg 95%
    23:00 +18°C° 0 mm 3 m/s 735 mmHg 95%

    24 Julho, Terça-feira

    Tempo Temperatura Precipitação Vento Pressão Humidade
    00:00 +18°C° 0 mm 3 m/s 735 mmHg 96%
    01:00 +18°C° 0 mm 3 m/s 735 mmHg 96%
    02:00 +18°C° 0 mm 3 m/s 735 mmHg 96%
    03:00 +18°C° 0,1 mm 3 m/s 735 mmHg 96%
    04:00 +18°C° 0,1 mm 3 m/s 735 mmHg 96%
    05:00 +18°C° 0,1 mm 3 m/s 735 mmHg 97%
    06:00 +18°C° 0,1 mm 3 m/s 735 mmHg 96%
    07:00 +19°C° 0,1 mm 3 m/s 736 mmHg 95%
    08:00 +19°C° 0,1 mm 3 m/s 736 mmHg 95%
    09:00 +20°C° 0,1 mm 2 m/s 736 mmHg 94%
    10:00 +20°C° 0,1 mm 2 m/s 736 mmHg 93%
    11:00 +21°C° 0,1 mm 2 m/s 737 mmHg 92%
    12:00 +23°C° 0,2 mm 2 m/s 737 mmHg 90%
    13:00 +23°C° 0,2 mm 2 m/s 737 mmHg 88%
    14:00 +24°C° 0,2 mm 2 m/s 737 mmHg 86%
    15:00 +24°C° 0,8 mm 2 m/s 737 mmHg 86%
    16:00 +24°C° 0,8 mm 3 m/s 737 mmHg 86%
    17:00 +24°C° 0,8 mm 3 m/s 737 mmHg 86%
    18:00 +22°C° 0,3 mm 3 m/s 737 mmHg 89%
    19:00 +21°C° 0,3 mm 2 m/s 737 mmHg 92%
    20:00 +20°C° 0,3 mm 2 m/s 737 mmHg 95%
    21:00 +20°C° 0,2 mm 2 m/s 737 mmHg 95%
    22:00 +19°C° 0,2 mm 2 m/s 737 mmHg 96%
    23:00 +19°C° 0,2 mm 2 m/s 737 mmHg 96%

    25 Julho, Quarta-feira

    Tempo Temperatura Precipitação Vento Pressão Humidade
    00:00 +20°C° 0 mm 1 m/s 737 mmHg 96%
    01:00 +19°C° 0 mm 1 m/s 738 mmHg 96%
    02:00 +19°C° 0 mm 1 m/s 738 mmHg 97%
    03:00 +19°C° 0 mm 1 m/s 738 mmHg 97%
    04:00 +19°C° 0 mm 1 m/s 738 mmHg 97%
    05:00 +19°C° 0 mm 1 m/s 738 mmHg 97%
    06:00 +20°C° 0 mm 1 m/s 738 mmHg 94%
    07:00 +21°C° 0 mm 1 m/s 738 mmHg 92%
    08:00 +22°C° 0 mm 1 m/s 739 mmHg 89%
    09:00 +23°C° 0,7 mm 1 m/s 739 mmHg 86%
    10:00 +24°C° 0,7 mm 1 m/s 739 mmHg 84%
    11:00 +25°C° 0,7 mm 1 m/s 739 mmHg 81%
    12:00 +25°C° 1,3 mm 2 m/s 739 mmHg 81%
    13:00 +25°C° 1,3 mm 2 m/s 739 mmHg 80%
    14:00 +26°C° 1,3 mm 3 m/s 739 mmHg 80%
    15:00 +25°C° 1 mm 3 m/s 739 mmHg 82%
    16:00 +25°C° 1 mm 3 m/s 739 mmHg 84%
    17:00 +23°C° 1 mm 4 m/s 739 mmHg 86%
    18:00 +22°C° 0,2 mm 4 m/s 739 mmHg 89%
    19:00 +21°C° 0,2 mm 4 m/s 739 mmHg 91%
    20:00 +20°C° 0,2 mm 4 m/s 739 mmHg 93%
    21:00 +19°C° 0 mm 3 m/s 739 mmHg 94%
    22:00 +18°C° 0 mm 3 m/s 739 mmHg 95%
    23:00 +18°C° 0 mm 3 m/s 739 mmHg 96%
    Mostrar mais